This is the latest recevied weather packets stored in our database for station/object WW6Q. If no packets are shown the sender has not sent any weather packets the latest 10 day(s).
| Time | Temp. | Humidity | Pressure | Rain* | Wind** | Luminosity | Snow |
|---|---|---|---|---|---|---|---|
| 1788571300 | 25° C | 88% | 1013.9 hPa | 0 mm | - | 0 W/m² | - |
| 1788570996 | 25° C | 88% | 1014 hPa | 0 mm | - | 0 W/m² | - |
| 1788570691 | 25° C | 88% | 1014 hPa | 0 mm | - | 0 W/m² | - |
| 1788570386 | 25.56° C | 87% | 1013.7 hPa | 0 mm | - | 0 W/m² | - |
| 1788570082 | 25.56° C | 87% | 1013.9 hPa | 0 mm | - | 0 W/m² | - |
| 1788569778 | 25.56° C | 86% | 1013.4 hPa | 0 mm | - | 0 W/m² | - |
| 1788569474 | 25.56° C | 86% | 1013.5 hPa | 0 mm | - | 0 W/m² | - |
| 1788569174 | 25.56° C | 85% | 1013.7 hPa | 0 mm | - | 0 W/m² | - |
| 1788568869 | 25.56° C | 85% | 1013.9 hPa | 0 mm | - | 0 W/m² | - |
| 1788568564 | 25.56° C | 88% | 1013.6 hPa | 0 mm | - | 0 W/m² | - |
| 1788568260 | 25.56° C | 87% | 1013.4 hPa | 0 mm | - | 0 W/m² | - |
| 1788567955 | 25.56° C | 86% | 1013.4 hPa | 0 mm | - | 0 W/m² | - |
| 1788567650 | 25.56° C | 86% | 1013.5 hPa | 0 mm | - | 0 W/m² | - |
| 1788567345 | 26.11° C | 84% | 1013.6 hPa | 0 mm | - | 1 W/m² | - |
| 1788567044 | 26.11° C | 85% | 1013.7 hPa | 0 mm | - | 2 W/m² | - |
| 1788566740 | 26.67° C | 85% | 1013.5 hPa | 0 mm | - | 4 W/m² | - |
| 1788566436 | 26.67° C | 85% | 1013.7 hPa | 0 mm | - | 6 W/m² | - |
| 1788566131 | 27.22° C | 82% | 1013.6 hPa | 0 mm | - | 10 W/m² | - |
| 1788565831 | 27.22° C | 80% | 1013.5 hPa | 0 mm | - | 15 W/m² | - |
| 1788565530 | 27.22° C | 79% | 1013.7 hPa | 0 mm | - | 20 W/m² | - |
| 1788565227 | 27.78° C | 79% | 1013.4 hPa | 0 mm | - | 23 W/m² | - |
| 1788564922 | 27.78° C | 77% | 1013.5 hPa | 0 mm | - | 25 W/m² | - |
| 1788564618 | 27.78° C | 77% | 1013.3 hPa | 0 mm | - | 33 W/m² | - |
| 1788564314 | 28.33° C | 76% | 1013.5 hPa | 0 mm | - | 38 W/m² | - |
| 1788564010 | 28.33° C | 75% | 1013.4 hPa | 0 mm | - | 33 W/m² | - |
* Rain latest hour (hover to see other rain measurements)
** Current wind speed in m/s (hover to see current wind gust speed)